Powrót do katalogu

SL-16 DEB

AktywnySSO
NORAD 27491·DEBRIS·🇷🇺 Russia

Wystrzelony Jul 10, 1998 z Baikonur Cosmodrome

Loading…

Następne Przeloty (najbliższe 24 godziny)

TLE

ŚwieżeSource: Space-Track

Epoka: Sep 14, 2026, 12:24 UTC

1 27491U 98043L   26257.51680144 -.00000008  00000-0  26756-4 0  9997
2 27491  99.1207 342.4224 0205758  60.9574 301.2022 13.80335741418527

Śledź SL-16 DEB w czasie rzeczywistym z AllMySat

Download on the App Store